Airfield :
LOGIN :

Register | Disclaimer

   EN    FR    IT 

 










Legend :    VFR   Marginal VFR   IFR   Intensive IFR   Very Intensive IFR
Visi :
Ceiling :
>= 8 km
>= 3000ft
5 to 8 km
1000 to 3000 ft
1500m to 5 km
500 to 1000 ft
800 to 1500m
200 to 500 ft
< 800m
< 200 ft
Symbols :   Thunderstorms  Fog  Heavy snow  Heavy precipitations  Wind > 20 kt
SIGMETs :     Misc.  Thunderstorms  Icing  Turbulence  Mountain Waves  Volcanic Ashes







- Airport Elevation : 236 ft
- IATA code : MMX


ESMS - Malmö Sturup

CURRENT METAR :
  • 210920Z 31012KT CAVOK 23/11 Q1012

EXPIRED METARs :
  • 210850Z 31011KT CAVOK 23/11 Q1013
  • 210820Z 30010KT CAVOK 22/11 Q1012
  • 210750Z 31009KT CAVOK 21/12 Q1013
  • 210720Z 31009KT CAVOK 21/13 Q1013
  • 210650Z 31009KT CAVOK 20/13 Q1012

TAF TAF ESMS
Valid from the 21 at 06:00 until the 22 at 06:00 UTC


210510Z 2106/2206 30008KT CAVOK
No reported NOTAMs for that airfield.



MET'MAP, your aeronautical weather chart ! - Copyright ORBIFLY December 2007 - Disclaimer

ORBIFLY MET'MAP TEAM :

Programming & Development : Alexandra Zaïnal
Concept & Development : Baudouin d'Aumeries
Co-Development & Prog : Marc-Olivier Méhu
Technical & hardware support : Manuel Goepfert

Contact : metmap@orbifly.com




SOURCES & CREDITS :

   NOAA